Погода в Коробце

Россия / Смоленская область     54°31′05″N   33°28′55″E
темп.,
°C
ветер,
м/с
пор.,
м/с
влажн.,
%
обл.,
%
осадки,
мм/ч
давл.,
гПа
погр.,
м
15 апреля, чт
чт1500:00+10с3689100 0.1 1016112
03:00+9св3895100 0.6 1015216
06:00+9ссв4995100 0.5 1014256
09:00+11всв4985100 0.5 1015498
12:00+9ссв4993100 1.3 1014373
15:00+14всв51070100 1.3 1013952
18:00+12в61279100 1.3 1013703
21:00+10в2592100 2.5 1014142
16 апреля, пт
пт1600:00+9в3997100 1.3 1014336
03:00+8всв389656 2.2 1014161
06:00+9в6139328 0.1 1015466
09:00+10в5985100 0.3 1016614
12:00+14в61066100 0.7 10161622
15:00+11в3888100 4.2 1017538
18:00+11всв51087100 2.2 1017511
21:00+9всв4893100 2.8 1018170
17 апреля, сб
сб1700:00+8в41092100 0.6 1019308
03:00+7в399637 0.9 1020277
06:00+7всв499740 0.1 1020273
09:00+10всв5887100 0.3 1021616
12:00+10св5786100 0.0 1021782
15:00+10св51084100 0.0 10211060
18:00+12св61276100 0.0 1019666
21:00+10св6147313 0.0 1020479
18 апреля, вс
вс1800:00+8св61378100 0.0 1020504
03:00+6св51381100 0.0 1021405
06:00+4св5128111 0.0 1022360
09:00+8всв696827 0.0 1022572
12:00+10всв69615 0.0 1022862
15:00+11всв695759 0.0 10231104
18:00+11в486293 0.0 1023655
21:00+9всв3668100 0.1 1024170
19 апреля, пн
пн1900:00+8вюв228198 0.0 102446
03:00+5св23895 0.0 102550
06:00+4всв38909 0.0 1026179
09:00+8всв57675 0.0 1025521
12:00+12в685273 0.0 10251887
15:00+11всв575799 0.1 10251356
18:00+11всв5861100 0.1 10251015
21:00+8в4107198 0.1 1025495